This is the latest recevied weather packets stored in our database for station/object WE8L. If no packets are shown the sender has not sent any weather packets the latest 10 day(s).
| Time | Temp. | Humidity | Pressure | Rain* | Wind** | Luminosity | Snow |
|---|---|---|---|---|---|---|---|
| 1778054198 | 6.67° C | 99% | 1010.6 hPa | 1.78 mm | - | 0 W/m² | - |
| 1778053895 | 6.67° C | 99% | 1010.6 hPa | 0 mm | - | 0 W/m² | - |
| 1778053593 | 7.22° C | 99% | 1010.5 hPa | 1.27 mm | - | 0 W/m² | - |
| 1778053290 | 7.22° C | 99% | 1010.5 hPa | 1.78 mm | - | 0 W/m² | - |
| 1778052987 | 7.22° C | 99% | 1010.5 hPa | 1.78 mm | - | 0 W/m² | - |
| 1778052685 | 7.78° C | 99% | 1010.6 hPa | 1.27 mm | - | 0 W/m² | - |
| 1778052381 | 7.78° C | 99% | 1010.8 hPa | 1.27 mm | - | 0 W/m² | - |
| 1778052079 | 7.78° C | 99% | 1010.7 hPa | 1.78 mm | - | 0 W/m² | - |
| 1778051777 | 8.33° C | 99% | 1010.4 hPa | 3.05 mm | - | 0 W/m² | - |
| 1778051474 | 8.33° C | 99% | 1010.6 hPa | 3.05 mm | - | 0 W/m² | - |
| 1778051171 | 8.33° C | 99% | 1010.4 hPa | 4.83 mm | - | 0 W/m² | - |
| 1778050868 | 8.33° C | 99% | 1010.3 hPa | 4.32 mm | - | 0 W/m² | - |
| 1778050566 | 8.33° C | 99% | 1010.5 hPa | 3.05 mm | - | 0 W/m² | - |
| 1778050262 | 8.33° C | 99% | 1010.5 hPa | 3.05 mm | - | 0 W/m² | - |
| 1778049959 | 8.33° C | 99% | 1010.5 hPa | 0 mm | - | 0 W/m² | - |
| 1778049654 | 8.33° C | 99% | 1010.3 hPa | 0 mm | - | 0 W/m² | - |
| 1778049353 | 8.33° C | 99% | 1009.9 hPa | 0 mm | - | 0 W/m² | - |
| 1778049050 | 8.33° C | 99% | 1010.2 hPa | 0 mm | - | 0 W/m² | - |
| 1778048748 | 8.33° C | 99% | 1010.1 hPa | 1.78 mm | - | 0 W/m² | - |
| 1778048445 | 8.33° C | 99% | 1010.2 hPa | 1.78 mm | - | 0 W/m² | - |
| 1778048141 | 8.33° C | 99% | 1009.9 hPa | 1.27 mm | - | 0 W/m² | - |
| 1778047839 | 8.33° C | 99% | 1009.8 hPa | 3.05 mm | - | 0 W/m² | - |
| 1778047537 | 8.33° C | 99% | 1009.7 hPa | 3.05 mm | - | 0 W/m² | - |
| 1778047234 | 8.33° C | 99% | 1009.8 hPa | 3.05 mm | - | 0 W/m² | - |
| 1778046931 | 8.89° C | 99% | 1009.8 hPa | 4.83 mm | - | 0 W/m² | - |
* Rain latest hour (hover to see other rain measurements)
** Current wind speed in m/s (hover to see current wind gust speed)